Location: Matagami
(49.7589°N, 77.6258°W)
Time: 10:58:28
(UTC-04:00)

ISS - Visible Passes

Search period start: 25 September 2022 00:00
Search period end: 05 October 2022 00:00
Orbit: 414 x 417 km, 51.6° (Epoch: 25 September)

Date Brightness Start Highest point End Pass type
(mag) Time Alt. Az. Time Alt. Az. Time Alt. Az.
25 Sep -3.7 20:45:52 10° WNW 20:49:14 69° N 20:49:51 53° ENE visible
25 Sep -0.3 22:22:41 10° WNW 22:22:44 10° W 22:22:44 10° W visible
26 Sep -3.5 19:57:11 10° WNW 20:00:32 62° N 20:03:00 17° E visible
26 Sep -1.9 21:33:59 10° WNW 21:35:53 30° W 21:35:53 30° W visible
27 Sep -3.9 20:45:18 10° WNW 20:48:40 81° SSW 20:49:02 67° SE visible
28 Sep -3.8 19:56:36 10° WNW 19:59:58 80° NNE 20:02:13 19° E visible
28 Sep -1.5 21:33:30 10° W 21:35:06 22° WSW 21:35:06 22° WSW visible
29 Sep -3.1 20:44:40 10° WNW 20:47:54 44° SSW 20:48:17 42° S visible
30 Sep -3.5 19:55:54 10° WNW 19:59:14 64° SSW 20:01:32 18° SE visible
30 Sep -0.9 21:33:28 10° WSW 21:34:25 13° WSW 21:34:25 13° WSW visible
01 Oct -1.9 20:44:14 10° W 20:46:56 22° SW 20:47:42 20° SSW visible
02 Oct -2.3 19:55:15 10° W 19:58:19 33° SSW 20:01:04 12° SSE visible
03 Oct -0.8 20:45:04 10° WSW 20:45:43 10° SW 20:46:21 10° SW visible
04 Oct -1.1 19:54:59 10° W 19:57:09 16° SW 19:59:19 10° S visible
